STARLINK-35951, 66619

Orbit data source: Space-Track

STARLINK-35951, 66619 is a payload satellite owned by SpaceX/Seattle (US) in LEO that was launched on Sun, 23 Nov 2025 UTC via an FALCON 9 launch vehicle from the Air Force Western Test Range (AFWTR). Payload-class satellites include a variety of spacecraft equipped with specific instruments for various scientific and technological missions. These include communications satellites like Starlink; space stations such as the ISS; scientific satellites like the Hubble; Earth observation satellites from companies like Planet Labs, Umbra, and HawkEye 360; GPS; miniature CubeSats for education and research; and military/defense satellites.

Loading next visibility...
Identifier
66619, 2025-271C
Orbit
LEO
Country
Flag of USUS
Related business
Manufacturer
SpaceX/Seattle
Mission
Operational Commercial Communications
Bus & Motor
STARLINK V2MO, Unknown motor
Mass
575 kg wet, ~530 kg dry
Launch date (UTC)
2025-11-23 (1 month ago)
Launch vehicle
FALCON 9
Launch site
Air Force Western Test Range (AFWTR)
Object type
Payload
Rocket body
Debris
Shape & HBR
Box + 2 Pan, 17.7 m
Radar Cross Section
36.964 m²

Expand to show TLE details & history
Last TLE update: 8 hours ago

TLE from 8 hours ago
0 STARLINK-35951
1 66619U 25271C   25355.37009779  .00086184  00000-0  17028-2 0  9994
2 66619  53.1602 145.9910 0002785 209.0656 151.0197 15.46426118  5542
Epoch: 2025-12-21T08:52Z
TLE epoch observation values (Epoch: 2025-12-21T08:52:56.449Z)
Latitude
-0.00001°
Longitude
-77.42774°
Altitude
429.755 km
Speed
7.654 km/s
True Right ascension
09h 43m 57s
True Declination
0° 00' 00"
Sunlit
Object was in full shadow at epoch
Visualization orbit readout
Latitude
Unknown
Longitude
Unknown
Altitude
Unknown
Speed
Unknown
Apparent Right ascension
Unknown
Apparent Declination
Unknown
Sunlit
N/A
Visualization observer readout
Local Sidereal Time
15:47:43
Azimuth
Unknown
Elevation
Unknown
Doppler factor
Unknown
Orbital elements
Apogee altitude
429.344 km
Perigee altitude
425.554 km
Semi-major axis
6,805.586 km
Eccentricity
0.00028
Inclination
53.1602°
RAAN
145.991°
Arg. of periapsis
209.0656°
True anomaly
151.03516°
Mean anomaly
151.0197°
Eccentric anomaly
151.02743°
Mean motion
3.86585 °/min
Orbital period
93.12 mins
BSTAR
0.0017028
Loading maneuver chart data...
Computing Atmospheric mass density...
Loading historical data...
Loading historical data...
Loading historical data...
Loading historical data...
Loading historical data...
Loading historical data...
Loading historical data...

Documentation

Showing up to 5 results
|